星链-4681 (STARLINK-4681 )

导读

STARLINK-4681是美国SpaceX公司星链(Starlink)低轨卫星互联网星座的一员,于2022年8月28日由猎鹰9号火箭发射入轨。作为星链第一代V1.5批次卫星,它运行在约550公里高度的近地轨道,配备相控阵天线与氪离子推进系统,具备自主轨道机动和碰撞规避能力,为全球提供高速低延迟宽带互联网服务,尤其覆盖偏远和基础设施不足区域。

基本信息
目录编号:
53594
目录名称:
STARLINK-4681
国际标识:
2022-104G
轨道中心:
EARTH
卫星名称:
星链-4681
卫星全名:
星链-4681 (STARLINK-4681 )
卫星状态:
在轨 (已飞行1387 天)
发射日期:
2022-08-28 UTC
国别 :
美国 (US)
星等 :
--
轨道信息
数据来源 国际轨道数据
星历时间: 2026-06-15T04:00:05+0800
4小时前
查看轨道信息
半长轴: 6653.652km
偏心率: 0.0000816
轨道倾角: 53.213°
近地点辐角 68.964°
升交点赤经 138.885°
平近点角 174.199°
近地点: 274.972km
远地点: 276.058km
周期: 90.022分钟
每日圈数: 15.996047
详细信息
固有亮度:
5
最大亮度:
2.5
卫星平台:
Starlink v1.5
覆盖范围:
全球
运营商:
太空探索技术公司
运营商所在国:
美国
制造商(研发单位):
太空探索技术公司
制造商所在国:
美国
使用方式:
暂无
卫星简介
星链(Starlink)计划是由太空探索技术公司(SpaceX)提出的一个巨型低轨卫星互联网星座项目,计划在2019年至2024年间在太空搭建由约1.2万颗卫星组成的“星链”网络,其中1584颗将部署在地球上空550千米处的近地轨道,并从2020年开始工作。该卫星仍在工作。
2D轨道图
3D轨道图
轨道高度分析图
轨道倾角分析图
轨道综合分析图
查看轨道综合分析图